Location: Unspecified
(64.9000°N, 0.0000°E)
Time: 17:14:26
(UTC+00:00)

Vanguard 1 - Pass Details

Date: 26 June 2019
Orbit: 653 x 3830 km, 34.3° (Epoch: 17 July)

Event Time Altitude Azimuth Distance (km) Brightness Sun altitude
Rises 04:51:51 0° 242° (WSW) 6,926 13.7 13.9°
Reaches altitude 10° 05:01:53 10° 215° (SW) 4,959 13.2 14.9°
Maximum altitude 05:04:50 11° 202° (SSW) 4,554 13.1 15.2°
Drops below altitude 10° 05:07:29 10° 189° (S) 4,331 13.1 15.4°
Sets 05:13:54 0° 156° (SSE) 4,541 13.5 16.1°
